Location: Borovka
(49.7741°N, 14.5280°E)
Time: 11:55:21
(UTC+00:00)

NANOSAT C BR1 - Visible Passes

Search period start: 15 March 2026 00:00
Search period end: 25 March 2026 00:00
Orbit: 477 x 484 km, 98.1° (Epoch: 14 March)

Date Brightness Start Highest point End Pass type
(mag) Time Alt. Az. Time Alt. Az. Time Alt. Az.
15 Mar ? 18:01:43 10° SSW 18:04:56 31° W 18:08:10 10° NNW visible
17 Mar ? 18:46:03 10° WSW 18:47:20 12° W 18:48:37 10° WNW visible
18 Mar ? 18:18:37 10° SSW 18:21:26 22° W 18:24:16 10° NW visible
19 Mar ? 17:52:12 10° S 17:55:36 41° W 17:59:00 10° NNW visible
21 Mar ? 18:35:27 10° SW 18:37:37 15° W 18:39:46 10° NW visible
22 Mar ? 18:08:28 10° SSW 18:11:36 28° W 18:14:44 10° NW visible
24 Mar ? 18:52:40 10° WSW 18:53:27 11° W 18:54:15 10° WNW visible
